Snowfall_Accumulation
nan nan nan nan nan nan nan 0.0 0.0 0.0 0.0 0.1 0.1 0.8 0.3 nan 0.0 0.0 0.0 0.0 0.1 0.0 0.0 0.0 0.1 0.5 0.3 0.0 0.1 1.7 1.1 3.0 2.3 0.5 1.6 3.2 3.4 5.2 3.0 13.3 7.4 5.6 9.2 13.1
nan nan nan nan nan nan 0.0 0.0 0.0 0.0 0.0 1.0 0.2 0.0 0.0 0.0 0.0 0.0 0.0 0.1 0.1 0.0 0.1 0.7 0.1 0.0 0.0 0.0 0.1 1.0 1.2 6.3 2.4 1.0 4.4 3.1 4.8 4.6 3.6 2.2 7.5 9.9 13.4 16.2
nan nan nan nan nan nan 0.0 0.0 1.3 2.3 0.3 0.6 0.1 0.1 0.3 0.0 0.0 0.0 0.1 0.1 0.0 0.1 0.1 0.1 0.8 0.0 0.0 0.0 0.0 nan nan 3.3 6.8 5.0 8.0 4.4 5.7 4.2 3.7 3.6 13.3 9.2 13.2 7.2
nan nan nan nan nan nan 0.0 0.3 0.7 0.3 3.1 0.5 0.2 0.2 0.4 0.1 0.3 0.1 0.0 0.2 0.2 0.5 1.2 0.0 0.1 0.1 0.1 0.0 nan 0.0 0.8 6.6 1.0 0.3 0.3 2.5 2.8 5.5 5.2 10.1 9.9 11.3 12.6 8.7
nan nan nan nan nan nan 0.0 1.2 1.5 1.4 1.2 0.4 0.5 2.3 2.8 0.9 0.6 1.1 0.6 0.6 0.1 0.7 3.7 3.0 2.0 0.4 0.2 0.2 0.0 0.5 0.8 6.5 1.8 2.7 0.4 0.6 2.9 2.7 5.3 5.6 10.6 8.5 10.2 12.9
nan nan nan nan nan nan 0.5 1.0 0.6 0.7 nan 3.9 3.6 2.0 0.7 1.0 1.1 3.8 1.7 0.5 1.4 1.1 0.4 0.3 0.4 0.5 0.7 1.1 2.6 1.7 2.7 6.6 7.2 7.9 0.8 1.9 9.0 5.2 3.0 7.3 8.8 9.9 12.7 13.7
nan nan nan nan nan nan 0.0 0.5 1.2 5.9 8.0 7.6 5.6 5.3 3.4 3.6 3.3 5.5 2.0 1.4 3.0 1.9 0.6 1.1 1.5 1.1 0.9 1.0 1.4 1.1 6.2 5.1 5.4 10.7 4.3 15.0 4.7 1.5 1.2 5.6 8.3 7.4 6.8 6.8
nan nan nan nan nan nan 0.0 0.9 2.3 6.3 15.9 8.8 5.9 5.8 5.3 5.0 4.2 5.7 3.8 2.1 2.3 1.2 0.9 1.9 1.6 0.4 0.3 0.3 0.1 0.9 1.8 4.2 16.2 15.0 4.5 3.4 5.7 4.6 3.4 4.7 5.8 6.6 6.6 4.2
nan nan nan nan nan nan 0.5 4.3 1.3 6.0 19.6 17.9 11.6 8.3 6.0 7.0 5.3 3.2 2.0 1.4 1.1 0.5 1.4 3.4 6.7 2.5 0.9 3.0 2.5 0.6 2.0 3.2 8.7 8.6 11.5 7.1 2.8 1.8 2.2 4.4 7.4 4.1 3.8 3.7
nan nan nan nan nan nan 1.4 5.3 3.0 8.9 22.2 13.1 10.1 10.7 10.0 4.4 3.8 4.3 1.3 1.2 0.5 0.2 1.2 4.1 4.0 2.9 1.2 3.2 2.7 1.8 2.1 5.8 13.6 6.0 18.1 7.8 2.2 1.2 2.4 8.0 5.3 1.9 2.6 4.0
nan nan nan nan nan nan 1.0 6.0 3.2 3.9 16.6 14.4 8.2 6.8 8.7 5.5 3.2 4.6 2.0 2.2 1.8 1.3 5.5 5.5 4.6 6.1 4.8 2.4 3.0 2.8 2.0 4.8 5.9 5.2 13.6 18.4 1.9 1.0 3.9 6.4 3.7 2.3 1.4 1.7
nan nan nan nan nan nan nan 4.2 3.1 0.5 9.4 11.9 3.4 3.9 2.7 3.2 3.5 3.7 1.8 1.4 0.8 2.5 5.5 6.5 3.6 5.1 3.0 3.8 7.2 1.7 4.3 6.9 5.2 6.7 8.5 8.6 6.3 7.9 6.4 5.3 3.0 2.5 1.7 0.9
nan nan nan nan nan nan nan 3.4 2.5 1.5 6.3 8.4 4.5 2.7 1.2 0.4 0.9 2.4 6.0 1.8 3.5 5.2 5.2 8.9 6.6 7.1 3.1 4.8 5.0 4.6 3.3 3.6 5.9 3.8 4.2 4.4 4.9 1.0 1.7 1.9 2.3 1.4 0.6 0.6
nan nan nan nan nan nan nan 0.7 0.7 0.4 0.8 5.1 7.4 0.6 1.6 0.9 0.3 0.6 0.7 0.9 0.6 1.6 2.6 10.0 7.0 7.9 1.3 4.4 6.1 2.4 4.9 3.7 6.5 6.7 4.1 4.1 4.1 2.3 2.4 1.1 0.4 0.4 0.2 0.3
nan nan nan nan nan nan nan 0.0 0.9 1.0 4.1 8.0 4.4 1.4 0.8 0.1 1.0 1.6 1.2 2.2 3.0 5.2 9.8 11.1 15.7 6.3 7.4 4.7 5.3 10.8 11.2 10.0 9.3 8.9 7.3 8.5 5.6 4.7 3.0 2.0 1.9 1.6 1.7 0.6
nan nan nan nan nan nan 0.1 2.3 0.1 0.0 0.7 6.1 5.1 1.6 0.9 0.1 0.4 0.3 0.8 1.7 2.2 5.5 8.8 10.7 12.6 9.1 8.2 15.5 11.4 9.1 7.8 7.6 9.6 12.0 9.9 10.3 8.6 7.0 6.0 5.6 5.4 5.2 2.9 2.5
nan nan nan nan nan 0.0 0.2 2.4 0.8 nan 1.4 4.8 7.2 4.2 0.2 0.0 1.8 0.6 1.0 0.4 6.3 7.2 11.4 11.3 9.4 7.4 2.9 12.1 12.9 9.4 8.7 9.6 10.5 8.5 5.8 7.3 5.0 13.0 8.8 7.4 7.9 6.2 5.5 5.7
nan nan nan nan nan nan 1.8 4.1 nan nan 0.8 0.4 11.7 3.3 0.2 0.0 1.1 6.7 0.9 3.8 5.0 3.8 9.7 6.6 7.2 3.8 4.5 16.3 14.3 10.4 7.8 5.3 4.6 6.7 6.9 10.5 7.7 5.1 5.9 4.1 4.3 4.4 5.6 5.6
nan nan nan 0.0 0.0 0.2 0.2 nan nan 0.8 1.0 9.1 5.7 6.7 6.6 0.0 0.7 3.5 7.3 2.4 4.9 3.5 5.0 7.6 1.5 6.6 14.5 18.2 11.5 7.5 8.7 10.1 9.7 5.3 5.0 3.9 4.8 4.5 3.2 3.0 2.7 3.0 4.3 3.5
nan 0.0 0.0 0.5 0.0 nan nan 0.1 0.7 0.8 1.6 2.1 7.1 0.6 5.0 0.7 0.3 5.4 3.5 7.5 8.4 13.4 8.9 1.5 6.5 20.5 14.5 12.6 10.6 7.8 7.1 6.7 4.6 4.5 2.9 1.2 1.4 2.0 2.3 3.0 2.6 3.3 3.7 3.1
0.0 0.2 0.4 0.0 nan 0.0 0.0 2.5 5.3 3.8 9.0 2.1 2.2 0.8 4.1 0.6 9.2 9.4 8.7 14.9 10.7 15.0 8.0 4.3 9.7 12.7 13.2 8.4 6.4 4.4 3.8 2.6 2.8 1.9 3.5 2.3 2.9 3.6 2.5 1.4 0.9 1.0 1.3 2.4
0.0 0.0 0.0 0.0 0.6 3.7 7.0 7.3 3.8 7.4 10.3 3.8 3.2 1.5 1.4 2.3 3.1 10.8 12.9 16.8 10.8 17.2 2.7 8.7 11.1 15.2 7.1 3.9 4.9 4.4 1.9 2.3 1.9 1.0 1.6 1.1 1.2 0.9 1.9 1.8 1.2 0.7 0.6 0.6
0.0 0.3 7.5 6.5 10.0 35.3 15.2 11.7 13.2 12.9 2.6 2.8 3.8 5.0 1.8 2.7 1.8 11.6 8.7 17.9 18.2 1.9 13.1 8.8 10.9 7.1 3.1 2.9 2.0 1.2 0.4 0.4 0.5 0.7 0.4 0.5 0.7 0.5 0.9 1.9 0.7 0.9 1.2 0.4
4.8 18.4 47.4 15.2 13.9 4.6 8.3 6.8 6.0 2.5 3.3 3.7 4.5 6.2 5.7 4.8 10.6 7.6 17.0 7.2 5.8 16.9 13.1 13.4 7.3 5.2 3.0 1.2 0.7 1.2 1.3 0.9 1.0 1.0 1.0 0.9 0.9 1.2 0.5 0.5 0.7 1.9 1.8 0.5
21.1 16.9 31.0 14.3 3.9 2.8 4.2 1.7 1.8 1.5 1.7 3.3 4.3 6.1 3.1 8.1 12.4 4.0 6.4 12.6 12.9 8.0 12.0 8.0 5.2 3.2 1.7 1.5 1.2 1.5 1.6 2.0 2.8 2.0 2.9 2.4 1.9 1.9 1.5 0.2 0.6 1.3 2.0 1.2
19.5 20.7 13.7 1.4 4.5 4.8 3.4 3.6 2.9 0.9 1.7 2.2 3.8 9.8 15.0 11.7 9.4 13.4 12.2 13.6 10.4 10.4 8.9 6.3 4.5 3.3 2.1 1.8 1.4 1.2 1.5 1.8 1.9 1.4 1.2 1.4 1.7 2.2 1.9 0.5 0.3 0.6 1.2 2.2
29.4 21.3 0.9 2.2 3.0 3.6 1.5 0.8 0.7 0.5 2.7 7.8 8.2 17.7 12.5 7.7 14.7 12.9 9.4 18.1 10.1 7.7 4.2 2.4 2.7 5.6 4.4 3.1 3.0 1.7 1.7 1.8 1.5 1.6 1.1 1.4 0.9 1.1 1.3 1.5 0.2 0.4 0.5 2.6
Water_Equivalent
nan nan nan nan nan nan nan 0.00 0.01 0.00 0.00 0.03 0.02 0.16 0.06 nan 0.00 0.00 0.00 0.01 0.01 0.01 0.00 0.00 0.02 0.07 0.05 0.00 0.02 0.23 0.22 0.39 0.33 0.07 0.21 0.45 0.46 0.51 0.31 1.37 0.54 0.55 0.71 1.54
nan nan nan nan nan nan 0.00 0.00 0.01 0.00 0.00 0.20 0.03 0.00 0.00 0.00 0.00 0.00 0.00 0.01 0.01 0.00 0.02 0.08 0.01 0.00 0.00 0.00 0.01 0.15 0.17 0.77 0.26 0.14 0.50 0.37 0.52 0.52 0.38 0.17 0.71 0.77 1.52 1.89
nan nan nan nan nan nan 0.00 0.00 0.40 0.54 0.10 0.15 0.03 0.02 0.05 0.01 0.00 0.00 0.01 0.02 0.01 0.01 0.02 0.02 0.11 0.01 0.00 0.00 0.00 nan nan 0.29 0.66 0.47 0.65 0.50 0.54 0.42 0.40 0.33 1.56 0.68 1.52 0.63
nan nan nan nan nan nan 0.00 0.07 0.19 0.07 0.42 0.08 0.03 0.04 0.07 0.01 0.04 0.02 0.01 0.03 0.03 0.08 0.12 0.00 0.02 0.01 0.01 0.01 nan 0.00 0.09 0.53 0.10 0.03 0.03 0.27 0.31 0.52 0.48 1.26 0.81 1.19 0.99 0.82
nan nan nan nan nan nan 0.00 0.24 0.33 0.29 0.21 0.08 0.08 0.37 0.43 0.14 0.10 0.16 0.07 0.09 0.01 0.11 0.45 0.38 0.20 0.06 0.03 0.02 0.01 0.07 0.10 0.57 0.15 0.18 0.03 0.05 0.24 0.25 0.45 0.40 0.85 0.74 0.85 0.93
nan nan nan nan nan nan 0.13 0.27 0.15 0.19 nan 0.62 0.49 0.29 0.12 0.15 0.15 0.50 0.23 0.08 0.20 0.13 0.05 0.04 0.06 0.07 0.09 0.14 0.28 0.17 0.26 0.60 0.58 0.60 0.06 0.13 0.64 0.36 0.23 0.53 0.65 0.75 0.92 0.99
nan nan nan nan nan nan 0.00 0.14 0.34 1.16 1.52 1.23 0.84 0.77 0.50 0.47 0.45 0.62 0.23 0.17 0.35 0.23 0.09 0.15 0.18 0.13 0.11 0.11 0.15 0.12 0.56 0.40 0.44 0.85 0.27 1.09 0.30 0.12 0.10 0.35 0.54 0.49 0.45 0.45
nan nan nan nan nan nan 0.00 0.23 0.62 1.37 1.95 1.04 0.68 0.65 0.62 0.57 0.46 0.61 0.40 0.22 0.28 0.16 0.11 0.21 0.14 0.03 0.03 0.03 0.01 0.08 0.16 0.34 1.30 1.11 0.38 0.23 0.42 0.32 0.21 0.29 0.32 0.44 0.42 0.27
nan nan nan nan nan nan 0.10 0.67 0.22 1.29 2.60 1.55 0.99 0.78 0.64 0.73 0.51 0.30 0.19 0.17 0.13 0.07 0.15 0.37 0.48 0.22 0.06 0.20 0.19 0.06 0.17 0.26 0.67 0.68 0.82 0.51 0.15 0.12 0.17 0.33 0.49 0.31 0.26 0.23
nan nan nan nan nan nan 0.24 0.73 0.55 1.52 2.54 1.27 0.94 0.94 0.90 0.48 0.40 0.43 0.13 0.12 0.05 0.03 0.13 0.39 0.37 0.21 0.11 0.21 0.16 0.10 0.13 0.41 1.02 0.48 1.23 0.44 0.14 0.08 0.17 0.52 0.30 0.13 0.19 0.28
nan nan nan nan nan nan 0.14 0.75 0.51 0.73 2.16 1.35 0.75 0.67 0.81 0.59 0.33 0.44 0.21 0.19 0.19 0.14 0.52 0.53 0.40 0.47 0.35 0.16 0.18 0.16 0.13 0.40 0.48 0.42 1.07 1.67 0.15 0.05 0.22 0.40 0.23 0.15 0.10 0.11
nan nan nan nan nan nan nan 0.53 0.44 0.08 1.39 1.11 0.33 0.40 0.27 0.32 0.34 0.39 0.19 0.15 0.10 0.26 0.57 0.64 0.36 0.45 0.24 0.29 0.52 0.13 0.30 0.52 0.40 0.55 0.67 0.72 0.48 0.62 0.48 0.42 0.21 0.17 0.12 0.07
nan nan nan nan nan nan nan 0.42 0.38 0.32 0.84 0.81 0.51 0.26 0.16 0.06 0.11 0.32 0.69 0.19 0.39 0.62 0.76 0.92 0.67 0.60 0.29 0.36 0.36 0.35 0.24 0.30 0.52 0.29 0.34 0.31 0.36 0.09 0.16 0.17 0.21 0.12 0.04 0.05
nan nan nan nan nan nan nan 0.08 0.09 0.07 0.10 0.46 0.52 0.10 0.18 0.14 0.04 0.09 0.10 0.12 0.07 0.19 0.36 1.24 0.84 0.91 0.15 0.43 0.52 0.17 0.36 0.30 0.53 0.63 0.48 0.45 0.48 0.27 0.26 0.14 0.04 0.04 0.03 0.03
nan nan nan nan nan nan nan 0.01 0.28 0.29 0.54 0.81 0.37 0.15 0.10 0.02 0.12 0.19 0.15 0.25 0.33 0.57 1.20 1.44 1.78 0.61 0.84 0.52 0.61 1.05 1.06 0.88 0.85 0.85 0.71 0.77 0.63 0.57 0.34 0.23 0.20 0.18 0.16 0.07
nan nan nan nan nan nan 0.01 0.29 0.02 0.00 0.14 0.81 0.57 0.18 0.09 0.02 0.06 0.03 0.08 0.19 0.24 0.74 1.26 1.25 1.62 0.91 0.82 1.96 1.14 0.87 0.71 0.69 0.97 1.19 1.15 1.13 1.01 0.80 0.73 0.62 0.61 0.54 0.31 0.28
nan nan nan nan nan 0.00 0.04 0.27 0.13 nan 0.28 0.60 0.98 0.39 0.04 0.00 0.20 0.09 0.16 0.06 0.94 1.01 1.58 1.41 1.12 0.78 0.34 1.54 1.31 0.95 0.85 0.93 1.10 1.01 0.67 0.76 0.56 1.39 1.04 0.86 0.97 0.75 0.67 0.66
nan nan nan nan nan nan 0.27 0.68 nan nan 0.09 0.08 2.66 0.41 0.02 0.00 0.16 0.71 0.21 0.62 0.89 0.55 1.34 0.91 0.87 0.52 0.59 1.91 1.40 1.01 0.81 0.54 0.46 0.72 0.71 1.09 0.88 0.59 0.69 0.46 0.47 0.45 0.55 0.57
nan nan nan 0.00 0.00 0.03 0.03 nan nan 0.17 0.16 1.54 1.19 0.93 1.29 0.00 0.09 0.38 0.88 0.36 0.68 0.46 0.57 0.80 0.20 0.67 1.59 1.65 1.02 0.69 0.79 0.86 0.93 0.64 0.57 0.43 0.48 0.42 0.30 0.28 0.25 0.26 0.39 0.33
nan 0.00 0.00 0.17 0.01 nan nan 0.02 0.15 0.18 0.26 0.44 1.01 0.07 0.60 0.05 0.03 0.60 0.39 1.08 1.16 2.72 0.85 0.20 0.85 1.83 1.54 1.34 1.03 0.72 0.68 0.69 0.47 0.37 0.23 0.11 0.11 0.16 0.18 0.24 0.21 0.26 0.30 0.26
0.00 0.08 0.15 0.00 nan 0.00 0.02 0.73 1.19 0.70 1.57 0.34 0.33 0.11 0.41 0.11 1.15 1.12 1.08 2.22 1.56 2.51 0.74 0.60 1.23 1.17 1.24 0.84 0.62 0.43 0.36 0.24 0.22 0.14 0.25 0.16 0.20 0.23 0.16 0.09 0.07 0.07 0.09 0.17
0.00 0.00 0.00 0.00 0.22 1.20 1.67 1.65 0.94 1.29 1.53 0.56 0.49 0.24 0.19 0.28 0.31 1.28 2.08 2.27 1.91 2.11 0.28 1.42 1.32 1.36 0.64 0.35 0.46 0.44 0.13 0.15 0.12 0.07 0.11 0.07 0.08 0.06 0.12 0.11 0.07 0.04 0.04 0.04
0.00 0.14 2.49 1.73 2.47 6.35 2.60 1.69 2.47 2.34 0.54 0.62 0.64 0.90 0.28 0.45 0.26 1.82 1.44 2.92 2.36 0.23 2.12 0.79 0.88 0.60 0.27 0.23 0.15 0.08 0.03 0.03 0.03 0.04 0.03 0.03 0.04 0.03 0.06 0.11 0.05 0.05 0.07 0.02
1.22 5.06 9.32 2.86 2.49 0.70 1.12 0.80 0.80 0.39 0.66 0.63 0.63 1.12 0.80 0.72 1.75 1.08 2.92 0.80 0.84 2.35 1.67 1.24 0.61 0.40 0.21 0.09 0.05 0.08 0.09 0.06 0.07 0.07 0.06 0.06 0.06 0.07 0.03 0.03 0.04 0.11 0.10 0.03
5.37 4.03 5.45 2.41 0.48 0.56 0.77 0.49 0.46 0.31 0.25 0.46 0.75 1.00 0.52 1.68 2.19 0.58 1.14 1.82 1.77 0.80 1.07 0.77 0.43 0.22 0.11 0.11 0.09 0.11 0.12 0.17 0.35 0.30 0.42 0.36 0.25 0.18 0.14 0.02 0.04 0.08 0.12 0.07
5.29 4.88 2.57 0.18 0.94 1.19 0.91 1.17 0.82 0.25 0.28 0.37 0.79 1.87 2.44 1.91 1.49 2.04 1.61 1.90 1.11 1.01 0.88 0.66 0.50 0.32 0.22 0.16 0.10 0.09 0.10 0.12 0.13 0.09 0.08 0.10 0.11 0.16 0.14 0.06 0.05 0.07 0.11 0.22
7.34 4.30 0.12 0.37 0.62 0.66 0.27 0.19 0.17 0.08 0.53 1.55 1.54 2.55 1.69 1.35 2.16 1.69 1.32 2.24 0.93 0.69 0.40 0.27 0.21 0.46 0.36 0.36 0.32 0.20 0.15 0.13 0.11 0.11 0.08 0.10 0.06 0.08 0.10 0.11 0.03 0.05 0.06 0.36
SL_Ratio
nan nan nan nan nan nan nan nan 3.3 nan nan 2.6 3.4 4.7 4.2 nan nan nan nan 4.5 4.4 5.5 nan nan 4.7 6.1 5.8 5.0 4.3 7.5 5.2 7.7 6.9 6.9 7.7 7.1 7.6 10.2 9.6 9.6 13.8 10.3 13.0 8.5
nan nan nan nan nan nan nan 0.0 2.7 5.0 nan 4.9 4.6 4.0 nan nan nan 5.0 3.6 4.7 4.1 5.0 5.8 8.3 6.0 5.0 5.0 nan 5.0 6.5 7.0 8.2 9.4 7.3 8.9 8.3 9.3 8.9 9.6 12.8 10.6 12.9 8.9 8.6
nan nan nan nan nan nan nan nan 3.3 4.2 2.8 4.0 4.2 5.0 6.5 5.5 5.0 5.0 3.9 4.6 4.7 6.4 7.0 5.5 7.6 6.1 5.0 nan 10.0 nan nan 11.6 10.3 10.6 12.3 8.7 10.6 10.2 9.3 10.9 8.5 13.6 8.7 11.4
nan nan nan nan nan nan nan 3.6 3.9 4.5 7.4 6.7 5.2 4.6 5.2 6.0 6.7 5.3 5.5 6.5 5.1 6.4 9.8 7.1 7.4 6.3 7.5 6.0 nan 5.8 8.7 12.5 10.0 9.9 9.7 9.3 9.0 10.7 10.9 8.0 12.2 9.4 12.8 10.7
nan nan nan nan nan nan nan 4.8 4.4 4.7 5.9 5.2 5.7 6.3 6.4 6.3 6.3 6.7 8.0 6.8 5.2 6.4 8.3 8.0 9.7 6.9 7.4 7.9 6.7 6.9 8.7 11.4 11.8 14.7 12.2 11.2 12.0 10.8 11.9 14.0 12.5 11.5 12.0 13.8
nan nan nan nan nan nan 3.8 3.7 3.7 3.8 nan 6.3 7.3 6.9 6.4 7.0 6.8 7.5 7.2 6.7 7.2 9.0 7.9 6.5 7.6 7.4 7.9 7.9 9.4 10.3 10.7 10.9 12.6 13.1 14.0 14.6 14.0 14.4 13.3 13.7 13.6 13.2 13.8 13.9
nan nan nan nan nan nan nan 3.2 3.4 5.1 5.3 6.1 6.7 6.9 6.8 7.7 7.3 8.8 8.7 7.8 8.4 8.3 7.3 7.4 8.2 8.6 8.7 8.9 9.2 8.9 11.0 12.7 12.1 12.7 15.6 13.8 15.7 12.9 12.8 15.9 15.2 14.9 15.0 15.0
nan nan nan nan nan nan nan 4.0 3.7 4.6 8.1 8.5 8.7 9.0 8.6 8.7 9.0 9.4 9.6 9.4 8.3 7.3 7.9 8.9 11.4 12.9 10.7 10.6 8.4 11.3 10.7 12.3 12.4 13.6 11.9 14.8 13.4 14.4 15.9 16.3 18.1 14.9 15.8 15.4
nan nan nan nan nan nan 4.8 6.4 5.9 4.6 7.5 11.6 11.7 10.5 9.4 9.6 10.5 10.7 10.2 8.7 7.9 7.5 9.2 9.4 13.9 11.6 14.7 15.2 13.8 9.9 11.8 12.5 13.0 12.6 14.1 13.9 18.2 14.9 12.3 13.4 15.2 13.5 14.4 16.0
nan nan nan nan nan nan 5.8 7.2 5.5 5.9 8.7 10.4 10.7 11.3 11.1 9.3 9.5 10.1 10.6 10.0 10.1 8.7 9.7 10.4 11.0 13.5 10.4 15.1 17.0 17.2 16.1 14.1 13.3 12.5 14.7 17.9 15.7 16.4 13.9 15.4 18.0 14.8 14.0 14.2
nan nan nan nan nan nan 7.0 8.0 6.2 5.3 7.7 10.6 10.9 10.1 10.8 9.4 9.7 10.5 9.7 11.2 9.8 9.4 10.6 10.3 11.4 13.1 13.7 15.4 16.9 17.9 15.5 12.2 12.1 12.3 12.7 11.0 12.6 18.2 17.9 16.0 15.8 15.4 14.8 14.8
nan nan nan nan nan nan nan 7.9 7.1 6.6 6.8 10.8 10.3 9.7 10.2 10.2 10.3 9.6 9.4 9.1 8.0 9.6 9.6 10.2 10.0 11.3 12.5 13.1 13.7 12.7 14.6 13.3 13.1 12.0 12.6 12.0 13.2 12.8 13.3 12.6 14.3 15.1 14.5 13.2
nan nan nan nan nan nan nan 8.1 6.6 4.6 7.5 10.3 8.9 10.6 7.8 6.4 8.0 7.6 8.7 9.3 9.1 8.4 6.9 9.7 9.8 11.9 10.5 13.4 14.0 13.1 13.8 11.9 11.4 13.1 12.5 14.1 13.6 11.6 10.9 11.2 11.2 11.8 13.0 13.4
nan nan nan nan nan nan nan 8.8 8.3 5.6 7.9 11.0 14.4 6.7 9.1 6.7 6.5 6.8 7.2 7.5 8.5 8.5 7.2 8.1 8.4 8.7 8.8 10.1 11.7 13.9 13.7 12.4 12.4 10.6 8.5 9.2 8.5 8.5 9.4 8.2 9.5 10.6 8.6 10.3
nan nan nan nan nan nan nan 5.4 3.2 3.6 7.7 9.9 12.1 9.0 8.0 7.1 8.1 8.5 8.5 9.2 8.9 9.1 8.1 7.7 8.8 10.4 8.8 9.0 8.7 10.3 10.6 11.4 10.9 10.4 10.4 11.1 9.0 8.3 8.9 8.7 9.5 9.0 10.3 9.0
nan nan nan nan nan nan 3.6 7.8 4.5 5.0 5.3 7.5 9.0 9.1 9.8 8.2 6.6 8.0 9.3 9.2 9.1 7.4 7.0 8.5 7.8 10.1 10.0 7.9 10.0 10.5 11.1 11.0 10.0 10.1 8.6 9.1 8.6 8.7 8.2 9.0 8.8 9.6 9.4 9.0
nan nan nan nan nan nan 6.3 9.2 5.9 nan 4.9 8.0 7.3 10.8 6.8 10.0 9.0 6.8 6.2 5.9 6.7 7.1 7.2 8.0 8.4 9.4 8.6 7.9 9.9 9.9 10.2 10.4 9.6 8.5 8.8 9.7 9.0 9.4 8.5 8.6 8.1 8.3 8.3 8.6
nan nan nan nan nan nan 6.7 6.0 nan nan 8.9 5.0 4.4 8.1 11.5 10.0 7.2 9.4 4.4 6.2 5.6 6.9 7.3 7.2 8.3 7.4 7.6 8.5 10.3 10.3 9.7 9.8 10.0 9.2 9.7 9.6 8.8 8.6 8.5 9.0 9.0 9.7 10.1 9.8
nan nan nan nan nan 6.3 6.5 nan nan 4.6 6.3 5.9 4.8 7.3 5.2 7.5 8.1 9.1 8.3 6.7 7.2 7.6 8.8 9.5 7.4 9.8 9.1 11.0 11.2 10.8 10.9 11.8 10.5 8.3 8.9 9.1 10.1 10.6 10.7 10.8 10.7 11.8 11.2 10.7
nan nan 2.5 2.7 5.0 nan nan 4.3 4.9 4.2 6.3 4.8 7.0 7.9 8.3 13.5 12.4 9.0 9.0 7.0 7.2 4.9 10.4 7.6 7.6 11.2 9.4 9.4 10.3 10.9 10.5 9.7 10.0 12.1 12.9 11.3 12.6 12.8 12.4 12.6 12.3 12.5 12.3 11.9
nan 2.5 2.5 nan nan nan 2.6 3.4 4.5 5.4 5.7 6.3 6.8 6.8 10.1 5.7 8.0 8.3 8.1 6.7 6.9 6.0 10.8 7.2 7.9 10.8 10.6 10.1 10.2 10.2 10.5 11.1 12.6 13.2 14.0 14.4 14.8 15.8 16.1 15.3 13.8 13.8 13.9 14.2
nan 3.3 nan nan 2.5 3.1 4.2 4.4 4.0 5.8 6.7 6.8 6.5 6.4 7.4 8.3 10.1 8.4 6.2 7.4 5.7 8.1 9.6 6.2 8.4 11.1 11.2 11.2 10.7 10.2 14.6 15.1 15.2 14.6 15.4 15.3 15.4 15.5 16.4 16.8 16.8 16.1 15.5 15.7
nan 2.5 3.0 3.8 4.0 5.6 5.9 6.9 5.4 5.5 4.9 4.5 5.9 5.5 6.6 6.0 7.1 6.4 6.0 6.1 7.7 8.4 6.2 11.1 12.4 11.9 11.3 13.0 13.5 14.5 13.9 14.4 14.3 15.1 14.4 14.5 15.3 15.0 15.8 16.8 16.2 16.2 17.2 16.3
4.0 3.6 5.1 5.3 5.6 6.6 7.4 8.6 7.4 6.4 5.0 5.9 7.2 5.5 7.1 6.6 6.1 7.1 5.8 9.0 6.8 7.2 7.8 10.7 11.8 13.0 14.2 14.4 13.9 14.4 14.1 13.8 13.6 15.2 15.3 15.5 16.1 16.6 15.8 15.5 15.8 17.1 17.9 16.3
3.9 4.2 5.7 5.9 8.2 5.1 5.4 3.4 3.9 4.8 6.7 7.2 5.7 6.1 6.0 4.8 5.7 6.8 5.6 6.9 7.3 10.0 11.1 10.4 12.1 14.7 15.0 13.6 13.2 13.2 13.8 11.4 8.0 6.8 7.1 6.7 7.6 10.3 10.6 8.3 14.8 16.2 17.0 17.1
3.7 4.2 5.3 7.7 4.7 4.0 3.7 3.1 3.5 3.6 6.2 5.8 4.7 5.3 6.2 6.1 6.3 6.6 7.6 7.1 9.4 10.3 10.2 9.6 9.1 10.3 9.7 11.1 13.5 13.9 14.9 14.9 15.5 15.2 14.2 14.7 14.9 13.5 13.1 9.8 6.7 9.3 10.9 10.3
4.0 5.0 7.1 6.0 4.8 5.5 5.4 4.2 4.0 5.9 5.2 5.0 5.3 7.0 7.4 5.7 6.8 7.6 7.1 8.1 10.9 11.1 10.7 8.7 12.6 12.1 12.3 8.7 9.3 8.4 11.6 13.3 13.7 14.7 14.5 14.8 14.5 13.5 12.9 13.7 9.8 8.7 7.8 7.2